• In United Kingdom
  • List of Countries
  • For 7 days
  • Water Temperature
  • Satellite Maps
  • Weather Map
  • Weather Widgets
  • user-avatar
    Login

    Hourly Weather Satif

    Today, 19 February, Monday

    Time Temperature Precipitation Wind Pressure Humidity
    00:00 +5°C° 0 mm 1 mps 671 mmHg 92%
    01:00 +4°C° 0 mm 1 mps 670 mmHg 92%
    02:00 +4°C° 0 mm 1 mps 670 mmHg 92%
    03:00 +4°C° 0 mm 1 mps 670 mmHg 92%
    04:00 +4°C° 0 mm 1 mps 670 mmHg 92%
    05:00 +4°C° 0 mm 1 mps 669 mmHg 91%
    06:00 +4°C° 0 mm 1 mps 669 mmHg 91%
    07:00 +5°C° 0 mm 1 mps 670 mmHg 86%
    08:00 +6°C° 0 mm 1 mps 670 mmHg 81%
    09:00 +7°C° 0 mm 1 mps 670 mmHg 77%
    10:00 +7°C° 0 mm 1 mps 671 mmHg 72%
    11:00 +8°C° 0 mm 1 mps 671 mmHg 67%
    12:00 +9°C° 0 mm 1 mps 671 mmHg 63%
    13:00 +9°C° 0.2 mm 1 mps 670 mmHg 63%
    14:00 +9°C° 0.2 mm 1 mps 670 mmHg 64%
    15:00 +9°C° 0.2 mm 1 mps 669 mmHg 64%
    16:00 +9°C° 0.3 mm 1 mps 669 mmHg 69%
    17:00 +7°C° 0.3 mm 2 mps 669 mmHg 74%
    18:00 +6°C° 0.3 mm 2 mps 669 mmHg 79%
    19:00 +6°C° 0.1 mm 2 mps 669 mmHg 81%
    20:00 +6°C° 0.1 mm 1 mps 669 mmHg 83%
    21:00 +6°C° 0.1 mm 1 mps 669 mmHg 86%
    22:00 +6°C° 0 mm 1 mps 669 mmHg 87%
    23:00 +6°C° 0 mm 1 mps 669 mmHg 89%

    Tomorrow, 20 February, Tuesday

    Time Temperature Precipitation Wind Pressure Humidity
    00:00 +5°C° 0 mm 1 mps 669 mmHg 90%
    01:00 +5°C° 0.1 mm 1 mps 669 mmHg 90%
    02:00 +5°C° 0.1 mm 1 mps 668 mmHg 91%
    03:00 +5°C° 0.1 mm 1 mps 668 mmHg 91%
    04:00 +4°C° 0 mm 1 mps 668 mmHg 91%
    05:00 +4°C° 0 mm 1 mps 668 mmHg 91%
    06:00 +4°C° 0 mm 1 mps 667 mmHg 91%
    07:00 +5°C° 0 mm 1 mps 668 mmHg 85%
    08:00 +4°C° 0 mm 2 mps 668 mmHg 78%
    09:00 +5°C° 0 mm 2 mps 669 mmHg 72%
    10:00 +6°C° 0 mm 2 mps 669 mmHg 65%
    11:00 +8°C° 0 mm 3 mps 668 mmHg 57%
    12:00 +9°C° 0 mm 3 mps 668 mmHg 50%
    13:00 +8°C° 0 mm 4 mps 668 mmHg 50%
    14:00 +8°C° 0 mm 4 mps 668 mmHg 49%
    15:00 +8°C° 0 mm 5 mps 667 mmHg 49%
    16:00 +7°C° 0.2 mm 4 mps 667 mmHg 57%
    17:00 +6°C° 0.2 mm 4 mps 667 mmHg 65%
    18:00 +5°C° 0.2 mm 3 mps 666 mmHg 73%
    19:00 +5°C° 0.2 mm 3 mps 667 mmHg 77%
    20:00 +5°C° 0.2 mm 3 mps 667 mmHg 80%
    21:00 +5°C° 0.2 mm 2 mps 667 mmHg 84%
    22:00 +5°C° 0.1 mm 2 mps 666 mmHg 86%
    23:00 +5°C° 0.1 mm 2 mps 666 mmHg 87%

    Day after tomorrow, 21 February, Wednesday

    Time Temperature Precipitation Wind Pressure Humidity
    00:00 +4°C° 0.1 mm 2 mps 666 mmHg 89%
    01:00 +4°C° 0.1 mm 2 mps 665 mmHg 90%
    02:00 +4°C° 0.1 mm 2 mps 665 mmHg 90%
    03:00 +4°C° 0.1 mm 2 mps 664 mmHg 91%
    04:00 +4°C° 0.7 mm 2 mps 664 mmHg 90%
    05:00 +4°C° 0.7 mm 2 mps 664 mmHg 89%
    06:00 +4°C° 0.7 mm 2 mps 664 mmHg 89%
    07:00 +5°C° 0.2 mm 2 mps 664 mmHg 85%
    08:00 +6°C° 0.2 mm 1 mps 664 mmHg 82%
    09:00 +7°C° 0.2 mm 1 mps 664 mmHg 79%
    10:00 +8°C° 0.1 mm 1 mps 664 mmHg 74%
    11:00 +7°C° 0.1 mm 2 mps 664 mmHg 68%
    12:00 +8°C° 0.1 mm 2 mps 663 mmHg 63%
    13:00 +8°C° 0.7 mm 2 mps 663 mmHg 66%
    14:00 +8°C° 0.7 mm 3 mps 662 mmHg 69%
    15:00 +7°C° 0.7 mm 4 mps 662 mmHg 71%
    16:00 +7°C° 0.7 mm 3 mps 662 mmHg 75%
    17:00 +7°C° 0.7 mm 3 mps 661 mmHg 78%
    18:00 +6°C° 0.7 mm 2 mps 661 mmHg 81%
    19:00 +6°C° 0.2 mm 2 mps 661 mmHg 83%
    20:00 +5°C° 0.2 mm 2 mps 662 mmHg 85%
    21:00 +5°C° 0.2 mm 2 mps 662 mmHg 86%
    22:00 +5°C° 0.7 mm 2 mps 661 mmHg 88%
    23:00 +4°C° 0.7 mm 2 mps 661 mmHg 89%

    22 February, Thursday

    Time Temperature Precipitation Wind Pressure Humidity
    00:00 +4°C° 0.7 mm 2 mps 661 mmHg 90%
    01:00 +4°C° 0.6 mm 2 mps 661 mmHg 91%
    02:00 +3°C° 0.6 mm 2 mps 660 mmHg 91%
    03:00 +3°C° 0.6 mm 2 mps 660 mmHg 92%
    04:00 +3°C° 0.3 mm 2 mps 660 mmHg 91%
    05:00 +2°C° 0.3 mm 3 mps 660 mmHg 90%
    06:00 +2°C° 0.3 mm 3 mps 660 mmHg 89%
    07:00 +2°C° 0.3 mm 3 mps 660 mmHg 85%
    08:00 +3°C° 0.3 mm 2 mps 660 mmHg 82%
    09:00 +3°C° 0.3 mm 2 mps 660 mmHg 79%
    10:00 +3°C° 0.2 mm 3 mps 660 mmHg 74%
    11:00 +3°C° 0.2 mm 3 mps 660 mmHg 70%
    12:00 +4°C° 0.2 mm 3 mps 660 mmHg 66%
    13:00 +4°C° 0.3 mm 3 mps 660 mmHg 66%
    14:00 +4°C° 0.3 mm 3 mps 660 mmHg 66%
    15:00 +4°C° 0.3 mm 3 mps 660 mmHg 66%
    16:00 +3°C° 0.2 mm 3 mps 660 mmHg 70%
    17:00 +3°C° 0.2 mm 2 mps 660 mmHg 74%
    18:00 +3°C° 0.2 mm 2 mps 660 mmHg 78%
    19:00 +3°C° 0 mm 1 mps 660 mmHg 80%
    20:00 +3°C° 0 mm 1 mps 660 mmHg 81%
    21:00 +2°C° 0 mm 0 mps 660 mmHg 83%
    22:00 +3°C° 0 mm 1 mps 660 mmHg 83%
    23:00 +2°C° 0 mm 1 mps 660 mmHg 83%

    23 February, Friday

    Time Temperature Precipitation Wind Pressure Humidity
    00:00 +2°C° 0 mm 1 mps 659 mmHg 83%
    01:00 +1°C° 0 mm 2 mps 659 mmHg 83%
    02:00 +1°C° 0 mm 2 mps 659 mmHg 82%
    03:00 +1°C° 0 mm 2 mps 659 mmHg 82%
    04:00 +1°C° 0.1 mm 2 mps 659 mmHg 81%
    05:00 +1°C° 0.1 mm 2 mps 659 mmHg 81%
    06:00 0°C° 0.1 mm 3 mps 659 mmHg 80%
    07:00 +1°C° 0 mm 3 mps 660 mmHg 76%
    08:00 +1°C° 0 mm 4 mps 660 mmHg 71%
    09:00 +3°C° 0 mm 5 mps 661 mmHg 67%
    10:00 +4°C° 0 mm 6 mps 661 mmHg 60%
    11:00 +5°C° 0 mm 6 mps 661 mmHg 53%
    12:00 +6°C° 0 mm 7 mps 662 mmHg 46%
    13:00 +6°C° 0 mm 7 mps 662 mmHg 45%
    14:00 +6°C° 0 mm 7 mps 662 mmHg 44%
    15:00 +6°C° 0 mm 7 mps 662 mmHg 43%
    16:00 +6°C° 0 mm 5 mps 662 mmHg 48%
    17:00 +4°C° 0 mm 4 mps 662 mmHg 54%
    18:00 +4°C° 0 mm 2 mps 662 mmHg 60%
    19:00 +3°C° 0 mm 2 mps 662 mmHg 63%
    20:00 +4°C° 0 mm 1 mps 663 mmHg 66%
    21:00 +3°C° 0 mm 1 mps 663 mmHg 69%
    22:00 +3°C° 0.1 mm 1 mps 663 mmHg 70%
    23:00 +3°C° 0.1 mm 1 mps 663 mmHg 72%

    24 February, Saturday

    Time Temperature Precipitation Wind Pressure Humidity
    00:00 +3°C° 0.1 mm 1 mps 664 mmHg 73%
    01:00 +3°C° 0.4 mm 1 mps 664 mmHg 75%
    02:00 +3°C° 0.4 mm 1 mps 664 mmHg 77%
    03:00 +3°C° 0.4 mm 1 mps 664 mmHg 79%
    04:00 +3°C° 0.2 mm 1 mps 664 mmHg 79%
    05:00 +4°C° 0.2 mm 1 mps 664 mmHg 80%
    06:00 +4°C° 0.2 mm 1 mps 664 mmHg 80%
    07:00 +5°C° 0.2 mm 1 mps 665 mmHg 76%
    08:00 +6°C° 0.2 mm 1 mps 665 mmHg 73%
    09:00 +6°C° 0.2 mm 2 mps 666 mmHg 69%
    10:00 +7°C° 0 mm 2 mps 666 mmHg 62%
    11:00 +9°C° 0 mm 2 mps 666 mmHg 55%
    12:00 +10°C° 0 mm 3 mps 666 mmHg 48%
    13:00 +11°C° 0 mm 3 mps 666 mmHg 47%
    14:00 +11°C° 0 mm 3 mps 666 mmHg 45%
    15:00 +12°C° 0 mm 3 mps 665 mmHg 43%
    16:00 +10°C° 0 mm 3 mps 665 mmHg 50%
    17:00 +9°C° 0 mm 2 mps 665 mmHg 56%
    18:00 +7°C° 0 mm 2 mps 664 mmHg 62%
    19:00 +7°C° 0 mm 2 mps 665 mmHg 63%
    20:00 +7°C° 0 mm 2 mps 665 mmHg 64%
    21:00 +6°C° 0 mm 2 mps 665 mmHg 65%
    22:00 +6°C° 0 mm 2 mps 665 mmHg 65%
    23:00 +6°C° 0 mm 2 mps 665 mmHg 65%
    Show more